WB0RXX Weather Reports


Display with metric or nautical units.
time (UTC)temp
F
wind
direction
speed
MPH
gust
MPH
rain 1hr
in
rain 24hr
in
rain mn
in
humidity
%
barometer
mb
20260901032003 71 9 0.0 0.0 0.00 0.00 0.00 82 1013.7
20260901025004 72 9 0.0 0.0 0.00 0.00 0.00 82 1013.6
20260901020003 73 9 0.0 0.0 0.00 0.00 0.00 77 1013.0
20260901003005 78 9 0.0 0.0 0.00 0.00 0.00 68 1012.7
20260901001004 79 9 0.0 0.0 0.00 0.00 0.00 65 1012.7
20260831233005 82 9 0.0 0.0 0.00 0.00 0.00 49 1012.9
20260831225004 82 9 0.0 0.0 0.00 0.00 0.00 46 1013.1
20260831223004 83 9 0.0 0.0 0.00 0.00 0.00 46 1012.9
20260831221005 83 9 0.0 0.0 0.00 0.00 0.00 42 1012.9
20260831211006 84 195 0.0 0.0 0.00 0.00 0.00 52 1013.0
20260831210003 83 195 0.0 0.0 0.00 0.00 0.00 51 1013.0
20260831205005 83 5 1.0 0.0 0.00 0.00 0.00 50 1013.1
20260831203003 83 15 3.0 3.0 0.00 0.00 0.00 48 1013.2
20260831194003 84 349 0.0 0.0 0.00 0.00 0.00 51 1013.1
20260831192005 82 9 3.0 6.0 0.00 0.00 0.00 55 1013.3
20260831182003 81 351 1.0 4.0 0.00 0.00 0.00 57 1012.9
20260831173004 78 23 2.0 1.0 0.00 0.00 0.00 64 1013.2
20260831172003 78 355 2.0 3.0 0.00 0.00 0.00 66 1013.3
20260831161003 74 3 7.0 12.0 0.00 0.00 0.00 74 1013.4
20260831154005 73 352 7.0 11.0 0.00 0.00 0.00 78 1012.9
20260831153004 72 12 6.0 13.0 0.00 0.00 0.00 80 1013.0
20260831151003 72 357 4.0 10.0 0.00 0.00 0.00 83 1012.8
20260831142003 70 342 1.0 6.0 0.00 0.00 0.00 86 1012.7
20260831140004 69 347 3.0 8.0 0.00 0.00 0.00 89 1012.2
20260831135004 69 334 3.0 6.0 0.00 0.00 0.00 90 1012.0
20260831131004 69 344 3.0 6.0 0.00 0.00 0.00 91 1011.4
20260831130006 68 323 5.0 10.0 0.00 0.00 0.00 92 1011.1
20260831124004 68 348 3.0 9.0 0.00 0.00 0.00 95 1011.0
20260831123004 68 345 2.0 8.0 0.00 0.00 0.00 95 1010.9
20260831105003 70 269 0.0 0.0 0.00 0.00 0.00 96 1009.0
20260831102005 71 269 0.0 0.0 0.00 0.00 0.00 95 1008.7
20260831100004 71 269 0.0 0.0 0.00 0.00 0.00 95 1008.8
20260831090004 72 181 0.0 3.0 0.00 0.00 0.00 93 1008.0
20260831084005 72 171 0.0 0.0 0.00 0.00 0.00 93 1007.9
20260831075005 72 171 0.0 0.0 0.00 0.00 0.00 94 1007.2
20260831073003 73 171 0.0 0.0 0.00 0.00 0.00 94 1007.1
20260831071006 73 171 0.0 0.0 0.00 0.00 0.00 94 1006.8
20260831070003 73 171 0.0 0.0 0.00 0.00 0.00 94 1006.9
20260831065006 73 171 0.0 0.0 0.00 0.00 0.00 94 1006.7
20260831064005 74 171 0.0 0.0 0.00 0.00 0.00 93 1006.8
20260831060004 75 171 1.0 2.0 0.00 0.00 0.00 93 1006.5
20260831054003 75 171 0.0 1.0 0.00 0.00 0.00 92 1006.1
20260831044005 76 150 2.0 3.0 0.00 0.00 0.00 91 1006.4
20260831041003 77 150 1.0 1.0 0.00 0.00 0.00 91 1006.6